Regional Weather Roundup
Issued by NWS Newport/Morehead, NC

Current Version | Previous Version | Graphics & Text | Print | Product List | Glossary On
Versions: 1 2 3 4 5 6 7 8 9 10 11 12 13 14 15 16 17 18 19 20 21 22 23 24 25 26 27 28 29 30 31 32 33 34 35 36 37 38 39 40 41 42 43 44 45 46 47 48 49 50
000 ASUS42 KMHX 301313 RWRMHX WEATHER ROUNDUP FOR EASTERN NORTH CAROLINA NATIONAL WEATHER SERVICE NEWPORT/MOREHEAD CITY NC 900 AM EDT THU MAR 30 2017 NOTE: "FAIR" INDICATES FEW OR NO CLOUDS BELOW 12,000 FEET WITH NO SIGNIFICANT WEATHER AND/OR OBSTRUCTIONS TO VISIBILITY NCZ015>017-031-032-045>047-102-103-301400- NORTH COAST CITY SKY/WX TMP DP RH WIND PRES REMARKS EDENTON NOT AVBL ELIZABETH CITY SUNNY 51 47 86 NE6 30.22R KITTY HAWK NOT AVBL MANTEO SUNNY 52 46 82 NE12 30.21R $$ NCZ045>047-081-094-103-104-301400- CENTRAL COAST CITY SKY/WX TMP DP RH WIND PRES REMARKS FRISCO SUNNY 56 47 71 NE13G20 30.17R $$ NCZ095-097-098-100-101-301400- SOUTHERN COAST CITY SKY/WX TMP DP RH WIND PRES REMARKS BEAUFORT SUNNY 59 51 75 NE9 30.15S CEDAR ISLAND NOT AVBL JACKSONVILLE SUNNY 56 49 77 NE10 30.15S PINEY ISLAND SUNNY N/A N/A N/A NE15 30.16S WILMINGTON SUNNY 58 51 78 E7 30.13S $$ NCZ011>013-027>030-043-044-078>080-089-090>093-098-301400- COASTAL PLAIN CITY SKY/WX TMP DP RH WIND PRES REMARKS AHOSKIE NOT AVBL CLINTON MOSUNNY 55 50 85 E7 30.16R ELIZABETHTOWN SUNNY 56 50 81 E5 30.14R GOLDSBORO CLOUDY 53 53 100 NE8 30.16S GREENVILLE CLOUDY 50 48 93 NE3 30.21R HAVELOCK NOT AVBL KENANSVILLE PTSUNNY 55 50 82 E3 30.16S KINSTON CLOUDY 50 50 100 NE8 30.18S NEW BERN SUNNY 53 49 86 NE6 30.18S RICHLANDS SUNNY 54 49 83 NE10 30.16S ROCKY MOUNT CLOUDY 51 48 89 NE3 30.19S WASHINGTON CLOUDY 51 47 87 NE7 30.21R WHITEVILLE SUNNY 60 51 72 E10 30.11S $$ AMZ130-135-150-152-154-156-158-170-250-252-270-ANZ085-086-088-633-658-670-301400- MARINE OBSERVATIONS STATION/POSITION TIME TEMP WIND PRES WAVE SWELL AIR SEA DIR/SP/G HT/PER HT/PER (UTC) (F) (DEG/KT/KT) (MB) (FT/S) (FT/S) CHESAPEAKE LIGHT NOT AVBL 64 E VA BEACH 1250 51 50 50/ 14/ 16 1022.5 5/10 3/10 DUCK 1230 49 50 30/ 11/ 12 1022.5 2 E DUCK 1230 50 N/A 4/ 8 2/15 OREGON INLET 1230 50 55 10/ 9/ 14 1022.3 13E OREGON INLT 1218 49 N/A 6/10 5/10 HATTERAS CG 1230 54 60 30/ 10/ 14 1021.2 DIAMOND BUOY 1250 61 77 30/ 16/ 19 1021.0 7/ 9 5/ 9 CAPE LOOKOUT 1200 58 20/ 10/ 13 1020.3 BEAUFORT LAB 1230 56 61 40/ 7/ 12 1020.2 30 SE NEW RVR IN 1208 62 40/ 12/ 16 1020.2 30 SE NEW RVR IN 1243 64 N/A 5/ 9 2/11 27 SE WRIGHTSVLE 1208 65 73 80/ 14/ 21 1019.2 5 SE WRIGHTSVLE 1208 57 58 40/ 14/ 17 1019.7 225 S CAPE HAT 1150 68 72 80/ 10/ 14 1018.2 7/ 9 7/ 9 41 SE CHARLESTON 1150 72 70 100/ 16/ 17 1016.8 5/10 3/10 $$

USA.gov is the U.S. government's official web portal to all federal, state and local government web resources and services.